[[{"header":{"parameterUnit":"m.s-1","parameterCategory":2,"la1":30.2991,"la2":30.254,"lo1":-89.0895,"lo2":-89.0444,"dy":0.0017,"dx":0.0017,"nx":28,"ny":28,"refTime":"2025-03-08T03:00:00:Z","depth":"0","parameterNumber":2,"parameterNumberName":"U-component_of_CURRENTS"},"data":[0,0,0,0,0,0,0,0,0,0,0,0,0,0,0,0,0,0,0,0,0,0,0,0,0,0,0,0,0,0,0,0,0,0,0,0,0,0,0,0,0,0,0,0,0,0,0,0,0,0,0,0,0,0,0,0,0,0,0.3245,0.3246,0,0.3304,0.3304,0.3304,0.3316,0.3315,0.3315,0.3315,0.3329,0.333,0.333,0,0,0,0,0,0,0,0,0,0,0,0,0,0.3169,0.317,0.3245,0.3246,0.3247,0.3304,0.3304,0.3305,0.3316,0.3315,0.3315,0.3315,0.3329,0.333,0.333,0,0,0,0,0,0,0,0,0,0,0,0,0,0.3209,0.317,0.3244,0.3261,0.3264,0.3303,0.3304,0.3305,0.3316,0.3315,0.3315,0.3315,0.3329,0.333,0.333,0.3342,0,0,0.3333,0.3333,0,0,0,0,0,0,0,0,0.3207,0.3212,0.3258,0.326,0.3263,0.3305,0.3283,0.3316,0.3316,0.3293,0.3315,0.3315,0.3319,0.3321,0.3329,0.3342,0.3343,0.3333,0.3334,0.3334,0.3334,0,0,0,0,0,0,0,0.3204,0.3209,0.3265,0.3259,0.3262,0.3275,0.328,0.3289,0.3304,0.3295,0.3296,0.3308,0.332,0.3328,0.3329,0.3343,0.3333,0.3334,0.3334,0.3335,0.3403,0.3404,0,0,0,0,0,0,0.3202,0.3207,0.3263,0.3267,0.3237,0.3277,0.3282,0.3289,0.3305,0.3308,0.3308,0.3308,0.3327,0.3328,0.333,0.3371,0.3334,0.3335,0.3335,0.3402,0.3403,0.3405,0,0,0,0,0,0,0.32,0.3206,0.3261,0.3241,0.3249,0.3279,0.3286,0.329,0.3302,0.3316,0.3318,0.3316,0.3326,0.3328,0.3348,0.3371,0.3335,0.3336,0.34,0.3402,0.3404,0.3437,0,0,0,0,0,0,0.3197,0.3205,0.3209,0.324,0.325,0.3289,0.3287,0.3292,0.3311,0.3311,0.3323,0.3324,0.3326,0.3347,0.3349,0.3371,0.3337,0.3399,0.3401,0.3403,0.3434,0.3439,0.3444,0,0,0,0,0,0.3194,0.3202,0.3209,0.3216,0.3255,0.329,0.3296,0.3314,0.3311,0.3321,0.3331,0.3323,0.3364,0.3348,0.335,0.3374,0.3397,0.34,0.3403,0.3431,0.3438,0.3444,0,0,0,0,0,0,0.3167,0.3205,0.3213,0.3231,0.326,0.3293,0.3306,0.3316,0.3332,0.3331,0.3336,0.3338,0.337,0.3366,0.3349,0.3402,0.3381,0.3385,0.3402,0.3408,0.3414,0.3427,0.3337,0,0,0,0,0,0.3165,0.3182,0.3219,0.3233,0.3248,0.3276,0.3292,0.3306,0.3327,0.3334,0.3343,0.3358,0.3385,0.339,0.341,0.343,0.3452,0.3449,0.3454,0.3458,0.3472,0.3533,0.3545,0.3414,0.3414,0.3414,0,0,0.3157,0.3182,0.319,0.3229,0.3251,0.3281,0.3284,0.3312,0.3338,0.3332,0.3362,0.3378,0.3397,0.343,0.3443,0.3426,0.3506,0.3462,0.3465,0.3477,0.3537,0.355,0.3561,0.3417,0.3416,0.3416,0,0,0.3157,0.3173,0.3192,0.322,0.3261,0.3283,0.3292,0.3328,0.3345,0.3375,0.3389,0.342,0.344,0.347,0.3485,0.3529,0.3538,0.3532,0.3561,0.3619,0.363,0.364,0.3679,0.3692,0.3526,0.3526,0.3526,0,0.3146,0.3175,0.3202,0.3231,0.3259,0.3285,0.3314,0.334,0.3376,0.3402,0.3387,0.3462,0.3466,0.3532,0.3545,0.3542,0.357,0.3532,0.3626,0.3637,0.3647,0.3684,0.3698,0.3528,0.3528,0.3528,0.3527,0,0.3165,0.3191,0.3205,0.3252,0.3283,0.3312,0.3357,0.3384,0.3403,0.3434,0.3499,0.3518,0.3563,0.357,0.3567,0.3646,0.3641,0.3632,0.3609,0.3662,0.3697,0.3712,0.3531,0.353,0.353,0.3529,0,0,0.3136,0.3205,0.321,0.3237,0.3299,0.3324,0.3376,0.3438,0.3489,0.3513,0.3582,0.362,0.3637,0.3657,0.3667,0.3708,0.3788,0.3696,0.3698,0.3732,0.3913,0.3892,0.3906,0.3797,0.38,0.3803,0.3907,0,0.3145,0.3195,0.3234,0.3284,0.3314,0.3365,0.3416,0.3474,0.3531,0.3601,0.3637,0.3705,0.3669,0.3704,0.3738,0.3791,0.383,0.3761,0.3859,0.3862,0.3836,0.3923,0.3815,0.3898,0.3921,0.3923,0.3925,0,0.315,0.3188,0.3235,0.3311,0.333,0.3364,0.3464,0.3518,0.3626,0.3679,0.375,0.3787,0.386,0.3819,0.3921,0.3881,0.39,0.3924,0.3929,0.3912,0.3869,0.3851,0.3924,0.3823,0.3947,0.3945,0.3944,0,0.3116,0.3187,0.3223,0.3248,0.3337,0.3371,0.3424,0.3535,0.361,0.3741,0.3805,0.3895,0.3949,0.3996,0.4026,0.3989,0.4137,0.4091,0.409,0.4087,0.4017,0.4004,0.4003,0.4168,0.4168,0.4168,0.4168,0,0.311,0.3139,0.3206,0.3226,0.3288,0.3354,0.3445,0.3526,0.366,0.3756,0.3836,0.3927,0.3999,0.4075,0.4084,0.4142,0.4183,0.4125,0.4129,0.4023,0.401,0.3935,0.3889,0.4172,0.4171,0.417,0.417,0,0.3076,0.3115,0.3164,0.3246,0.3272,0.3318,0.3447,0.353,0.3649,0.378,0.3824,0.398,0.4088,0.4145,0.4249,0.4222,0.4172,0.4281,0.4144,0.413,0.4012,0.3972,0.3855,0.3732,0.4302,0.4303,0.4303,0,0.3073,0.309,0.3166,0.3205,0.3244,0.332,0.3388,0.3517,0.3616,0.3802,0.3867,0.4017,0.412,0.4269,0.4288,0.4337,0.4184,0.4239,0.4147,0.4021,0.3979,0.3803,0.3693,0.4062,0.406,0.4059,0.4057,0,0.3088,0.3105,0.3156,0.321,0.3271,0.3331,0.3429,0.3493,0.3645,0.3745,0.3892,0.399,0.4159,0.4186,0.4262,0.4269,0.4049,0.4212,0.4124,0.3841,0.3608,0.3485,0.3964,0.4045,0.4046,0.4047,0.4048,0.4048,0.3119,0.314,0.3192,0.3233,0.329,0.3318,0.3324,0.3436,0.3532,0.3633,0.3815,0.3886,0.404,0.4151,0.4124,0.4031,0.3978,0.3917,0.3896,0.3741,0.3564,0.4016,0.4071,0.4073,0.4074,0.4075,0.4076,0,0.3157,0.3167,0.3214,0.3235,0.3241,0.3279,0.3335,0.3309,0.3342,0.3496,0.3598,0.3714,0.3782,0.3848,0.3877,0.3744,0.3541,0.3632,0.3358,0.3277,0.3736,0.3669,0.3587,0.3587,0.3587,0.3587,0.3587,0.3588,0.3188,0.321,0.3196,0.3171,0.3169,0.3103,0.3089,0.3065,0.3117,0.3147,0.319,0.3309,0.3565,0.3721,0.3624,0.3529,0.322,0.3098,0.3042,0.3388,0.3411,0.3433,0.3357,0.3212,0.3212,0.2441,0.2436,0.2431]},{"header":{"parameterUnit":"m.s-1","parameterCategory":2,"la1":30.2991,"la2":30.254,"lo1":-89.0895,"lo2":-89.0444,"dy":0.0017,"dx":0.0017,"nx":28,"ny":28,"refTime":"2025-03-08T03:00:00:Z","depth":"0","parameterNumber":3,"parameterNumberName":"V-component_of_CURRENTS"},"data":[0,0,0,0,0,0,0,0,0,0,0,0,0,0,0,0,0,0,0,0,0,0,0,0,0,0,0,0,0,0,0,0,0,0,0,0,0,0,0,0,0,0,0,0,0,0,0,0,0,0,0,0,0,0,0,0,0,0,0.0263,0.0263,0,0.0195,0.0194,0.0193,0.0137,0.0136,0.0136,0.0135,0.0028,0.0025,0.0023,0,0,0,0,0,0,0,0,0,0,0,0,0,0.0281,0.0281,0.0263,0.0263,0.0262,0.0195,0.0194,0.0193,0.0137,0.0136,0.0136,0.0135,0.0029,0.0026,0.0023,0,0,0,0,0,0,0,0,0,0,0,0,0,0.0247,0.0281,0.0263,0.0228,0.0224,0.0195,0.0194,0.0193,0.0137,0.0136,0.0136,0.0135,0.003,0.0026,0.0022,0.0011,0,0,0.0011,0.0009,0,0,0,0,0,0,0,0,0.0249,0.0246,0.0233,0.023,0.0226,0.0176,0.0161,0.0131,0.0137,0.0167,0.0135,0.0135,0.0076,0.0068,0.0054,0.0006,0.0001,0.001,0.0008,0.0007,0.0005,0,0,0,0,0,0,0,0.0251,0.0248,0.0234,0.0233,0.0228,0.0193,0.0188,0.0154,0.0123,0.0165,0.0161,0.0157,0.0073,0.0057,0.0051,-0.0001,0.0011,0.0007,0.0005,0.0003,-0.0065,-0.0065,0,0,0,0,0,0,0.0269,0.0251,0.0236,0.0232,0.0239,0.0194,0.0188,0.019,0.0124,0.0114,0.0158,0.0155,0.0064,0.0055,0.0047,0.0042,0.0007,0.0003,0.0001,-0.0065,-0.0065,-0.0064,0,0,0,0,0,0,0.0269,0.0268,0.0239,0.0241,0.0235,0.0195,0.0198,0.0189,0.0176,0.012,0.0109,0.0154,0.0063,0.0052,0.0026,0.0037,0.0001,-0.0002,-0.0066,-0.0065,-0.0065,0.0024,0,0,0,0,0,0,0.027,0.0269,0.0274,0.0243,0.0236,0.0233,0.0198,0.0189,0.0176,0.0171,0.0113,0.0102,0.0062,0.0032,0.0022,0.0031,-0.0005,-0.0067,-0.0066,-0.0065,0.002,0.0027,0.0033,0,0,0,0,0,0.0271,0.029,0.0275,0.0273,0.0246,0.0234,0.0227,0.0194,0.0177,0.0178,0.0139,0.0104,0.003,0.0029,0.0018,0.0026,-0.0067,-0.0066,-0.0065,0.0017,0.0026,0.0033,0,0,0,0,0,0,0.0301,0.0285,0.0268,0.0281,0.0262,0.0226,0.0225,0.0202,0.0172,0.0168,0.0111,0.0098,0.0077,0.004,0.0041,0.0008,-0.0025,-0.0026,0.0041,0.0049,0.0055,0.0073,-0.0008,0,0,0,0,0,0.0311,0.0319,0.0294,0.0303,0.0298,0.0262,0.0252,0.0232,0.0203,0.0189,0.0149,0.0106,0.0072,0.0053,0.0017,0.0001,-0.0035,-0.0003,0.0004,0.001,0.0016,-0.0026,-0.0023,-0.0061,-0.0061,-0.0061,0,0,0.0324,0.0317,0.032,0.0309,0.0291,0.0296,0.0254,0.025,0.0252,0.0183,0.0172,0.0128,0.0073,0.0055,0.0042,0.0026,0.0003,0.0011,0.0017,0.002,-0.0025,-0.0021,-0.0018,-0.0061,-0.0061,-0.0061,0,0,0.036,0.0349,0.0369,0.036,0.0345,0.0326,0.033,0.03,0.0283,0.0268,0.0219,0.0186,0.0135,0.0099,0.0073,0.0093,0.004,0.008,0.0127,0.0087,0.009,0.0092,0.006,0.0059,0.0084,0.0084,0.0084,0,0.0375,0.0397,0.0371,0.0389,0.0391,0.0346,0.0369,0.0347,0.0312,0.0306,0.0278,0.0204,0.0155,0.0132,0.0136,0.0109,0.008,0.0105,0.0097,0.0098,0.0098,0.0065,0.0063,0.0088,0.0088,0.0087,0.0087,0,0.0426,0.0441,0.0454,0.0461,0.046,0.0474,0.0447,0.0439,0.0412,0.0387,0.0359,0.0288,0.0247,0.0222,0.0183,0.0166,0.0143,0.0111,0.0081,0.0108,0.0071,0.0067,0.0094,0.0093,0.0091,0.009,0,0,0.0466,0.0487,0.0491,0.0512,0.0503,0.0514,0.0517,0.0513,0.053,0.047,0.0478,0.04,0.036,0.0328,0.0269,0.0226,0.0202,0.0177,0.0173,0.0154,0.012,0.0115,0.0109,0.017,0.017,0.0169,0.0096,0,0.0512,0.0569,0.0562,0.0613,0.0642,0.0611,0.0621,0.0609,0.0592,0.0588,0.0502,0.0485,0.0401,0.0387,0.0329,0.024,0.0193,0.0225,0.0089,0.0085,0.0083,0.0104,0.0128,0.0065,0.0091,0.009,0.009,0,0.0564,0.0599,0.066,0.07,0.0709,0.0727,0.0752,0.0763,0.0737,0.0724,0.0682,0.0617,0.0546,0.047,0.0323,0.0349,0.0243,0.0162,0.0156,0.0117,0.0071,0.0039,0.0056,-0.013,0.0082,0.0083,0.0083,0,0.0616,0.0669,0.0724,0.0737,0.0768,0.0787,0.0803,0.0802,0.0848,0.0818,0.0841,0.073,0.07,0.0543,0.0369,0.0347,0.0208,0.0156,0.0048,0.0046,0.0022,0.002,-0.015,0.0047,0.0047,0.0048,0.0048,0,0.0673,0.0718,0.0754,0.0786,0.0862,0.0854,0.0935,0.0936,0.097,0.1044,0.0921,0.0954,0.0718,0.0607,0.0418,0.0235,0.0244,0.0063,0.0028,0.0054,0.0056,-0.0143,-0.0258,0.0045,0.0045,0.0046,0.0046,0,0.0725,0.0741,0.0817,0.0867,0.089,0.0949,0.1045,0.1117,0.1118,0.1212,0.121,0.1137,0.0994,0.0747,0.0511,0.033,0.0024,0.0058,0.011,0.0083,-0.0196,-0.0305,-0.0524,-0.0598,-0.0074,-0.0075,-0.0075,0,0.0761,0.0802,0.0889,0.0956,0.0985,0.1073,0.1149,0.1192,0.1296,0.134,0.141,0.1295,0.1263,0.0911,0.0553,0.0219,0.0021,0.002,-0.0029,-0.0201,-0.035,-0.0436,-0.0488,-0.0028,-0.0028,-0.0028,-0.0028,0,0.0847,0.0868,0.0942,0.1068,0.1163,0.1281,0.1398,0.1501,0.1565,0.1649,0.1752,0.1723,0.1374,0.1063,0.0584,0.0344,-0.0106,0.001,-0.0189,-0.0341,-0.0426,-0.0515,0.0011,-0.0028,-0.0028,-0.0028,-0.0028,-0.0028,0.0925,0.0993,0.1088,0.1208,0.1327,0.1482,0.159,0.1745,0.192,0.2063,0.2025,0.2024,0.1518,0.0882,0.0532,-0.0099,-0.0122,-0.0287,-0.0409,-0.0481,-0.0549,-0.0014,-0.008,-0.008,-0.008,-0.008,-0.0081,0,0.1031,0.1105,0.1228,0.1376,0.1515,0.1551,0.1759,0.1886,0.2109,0.2252,0.2344,0.2085,0.1494,0.0859,-0.0001,-0.0432,-0.0594,-0.0679,-0.0808,-0.0843,-0.0382,-0.0375,-0.0481,-0.0481,-0.0481,-0.0481,-0.0481,-0.0481,0.11,0.1228,0.1279,0.1509,0.1614,0.1798,0.1916,0.2116,0.2265,0.2452,0.246,0.2419,0.1892,0.0366,-0.0626,-0.0845,-0.1148,-0.1236,-0.1384,-0.1089,-0.1062,-0.1036,-0.1057,-0.1304,-0.1306,-0.177,-0.1775,-0.1779]}],[{"header":{"parameterUnit":"m.s-1","parameterCategory":2,"la1":30.2991,"la2":30.254,"lo1":-89.0895,"lo2":-89.0444,"dy":0.0017,"dx":0.0017,"nx":28,"ny":28,"refTime":"2025-03-08T03:00:00:Z","depth":"2","parameterNumber":2,"parameterNumberName":"U-component_of_CURRENTS"},"data":[0,0,0,0,0,0,0,0,0,0,0,0,0,0,0,0,0,0,0,0,0,0,0,0,0,0,0,0,0,0,0,0,0,0,0,0,0,0,0,0,0,0,0,0,0,0,0,0,0,0,0,0,0,0,0,0,0,0,0.2745,0.2746,0,0.2795,0.2796,0.2796,0.2814,0.2814,0.2814,0.2814,0.2839,0.284,0.284,0,0,0,0,0,0,0,0,0,0,0,0,0,0.2675,0.2676,0.2745,0.2746,0.2747,0.2795,0.2796,0.2796,0.2814,0.2814,0.2814,0.2814,0.2839,0.284,0.284,0,0,0,0,0,0,0,0,0,0,0,0,0,0.2711,0.2677,0.2745,0.2764,0.2766,0.2795,0.2796,0.2796,0.2814,0.2814,0.2814,0.2814,0.2839,0.284,0.2841,0.2843,0,0,0.2843,0.2843,0,0,0,0,0,0,0,0,0.2709,0.2713,0.276,0.2762,0.2765,0.2801,0.2781,0.2812,0.2814,0.2793,0.2814,0.2815,0.2826,0.2828,0.2833,0.2844,0.2845,0.2843,0.2844,0.2844,0.2844,0,0,0,0,0,0,0,0.2706,0.2711,0.2762,0.2761,0.2764,0.2774,0.2779,0.2786,0.2805,0.2794,0.2797,0.2807,0.2827,0.2832,0.2834,0.2845,0.2843,0.2844,0.2844,0.2845,0.2921,0.2923,0,0,0,0,0,0,0.2705,0.2709,0.276,0.2764,0.274,0.2775,0.278,0.2787,0.2806,0.281,0.2807,0.2808,0.2831,0.2833,0.2835,0.289,0.2844,0.2845,0.2845,0.292,0.2922,0.2923,0,0,0,0,0,0,0.2704,0.2709,0.2758,0.274,0.2747,0.2776,0.2784,0.2788,0.2806,0.2816,0.2819,0.2822,0.2831,0.2834,0.286,0.2889,0.2845,0.2846,0.2918,0.292,0.2922,0.2967,0,0,0,0,0,0,0.2701,0.2708,0.2716,0.274,0.2748,0.2787,0.2784,0.2789,0.2813,0.2815,0.283,0.2831,0.2831,0.2859,0.2861,0.2889,0.2847,0.2916,0.2919,0.2922,0.2964,0.2971,0.2977,0,0,0,0,0,0.2699,0.2708,0.2715,0.2722,0.2756,0.2788,0.2793,0.2812,0.2813,0.2827,0.284,0.2832,0.2879,0.2861,0.2863,0.2892,0.2915,0.2918,0.2922,0.2961,0.2969,0.2977,0,0,0,0,0,0,0.2679,0.2712,0.272,0.2738,0.2767,0.2792,0.2809,0.2819,0.284,0.2844,0.2846,0.2849,0.2889,0.2883,0.2863,0.2924,0.2897,0.2901,0.2927,0.2935,0.2941,0.295,0.2847,0,0,0,0,0,0.2679,0.2696,0.2728,0.2744,0.276,0.2786,0.2802,0.2817,0.2838,0.2848,0.286,0.2877,0.2903,0.2912,0.2931,0.2956,0.2972,0.2978,0.2985,0.299,0.3001,0.3057,0.307,0.2935,0.2935,0.2934,0,0,0.2675,0.2697,0.2706,0.2742,0.2765,0.2793,0.2795,0.2827,0.2853,0.2847,0.2884,0.2901,0.2916,0.2954,0.297,0.2952,0.3038,0.2995,0.2999,0.3007,0.3062,0.3075,0.3087,0.2937,0.2936,0.2936,0,0,0.2678,0.2698,0.2716,0.2743,0.2785,0.2805,0.2817,0.2852,0.2873,0.2908,0.292,0.2955,0.2979,0.3005,0.3018,0.307,0.3075,0.3076,0.311,0.3165,0.3177,0.3187,0.3225,0.3239,0.3074,0.3074,0.3074,0,0.2674,0.27,0.2726,0.2754,0.2781,0.2811,0.284,0.2867,0.2907,0.2933,0.2926,0.3001,0.3007,0.3069,0.3087,0.3085,0.3113,0.3077,0.3174,0.3185,0.3195,0.3231,0.3245,0.3076,0.3076,0.3076,0.3076,0,0.2691,0.2717,0.2733,0.2778,0.281,0.2841,0.2886,0.2919,0.2945,0.2975,0.3045,0.3066,0.3111,0.3122,0.3117,0.3197,0.3192,0.318,0.3153,0.3211,0.3245,0.3259,0.308,0.3079,0.3078,0.3078,0,0,0.2665,0.2732,0.2737,0.2763,0.2827,0.2852,0.2908,0.2969,0.3019,0.3056,0.3124,0.3166,0.3188,0.3206,0.3218,0.3259,0.3345,0.325,0.3251,0.3285,0.3466,0.3424,0.3435,0.3354,0.3357,0.3359,0.3461,0,0.2672,0.2718,0.2757,0.2806,0.2835,0.289,0.2942,0.3002,0.3062,0.3135,0.3177,0.3247,0.3218,0.3258,0.3294,0.3345,0.3385,0.3318,0.3407,0.341,0.3364,0.3451,0.3188,0.3254,0.3475,0.3477,0.3479,0,0.2673,0.2707,0.2754,0.2827,0.2847,0.2885,0.2985,0.304,0.315,0.3205,0.328,0.3322,0.3402,0.3368,0.3471,0.3433,0.3453,0.3478,0.3482,0.3438,0.3395,0.3233,0.3271,0.3502,0.35,0.3499,0.3497,0,0.2633,0.2702,0.2738,0.2762,0.2852,0.2891,0.2947,0.3058,0.3126,0.3266,0.3331,0.3425,0.3488,0.3536,0.3572,0.3539,0.3682,0.3638,0.3618,0.3614,0.3405,0.3379,0.3713,0.3712,0.3712,0.3712,0.3712,0,0.2621,0.2649,0.2722,0.2741,0.2799,0.2873,0.2958,0.3043,0.3175,0.3261,0.3362,0.3448,0.3537,0.3615,0.3626,0.3675,0.3725,0.365,0.3651,0.3413,0.3387,0.3607,0.3593,0.3716,0.3715,0.3714,0.3713,0,0.2575,0.2622,0.2665,0.2752,0.2782,0.2825,0.2951,0.3019,0.3155,0.3277,0.3327,0.3495,0.3609,0.3677,0.3781,0.3748,0.3798,0.3794,0.3505,0.3471,0.3675,0.3663,0.3791,0.3791,0.3791,0.379,0.379,0,0.2556,0.2571,0.2653,0.2684,0.2725,0.2799,0.2856,0.2997,0.3079,0.3289,0.3343,0.3513,0.361,0.3757,0.3759,0.3801,0.3827,0.3558,0.3444,0.3703,0.3691,0.3679,0.3667,0.3179,0.3174,0.317,0.3167,0,0.2525,0.2553,0.2595,0.2643,0.2697,0.2747,0.2841,0.2891,0.3057,0.3163,0.3317,0.3422,0.3593,0.3541,0.3611,0.3586,0.3533,0.3475,0.3839,0.3206,0.3136,0.3121,0.3127,0.3129,0.3133,0.3135,0.3137,0.3139,0.2504,0.2517,0.2564,0.2602,0.2657,0.2677,0.2676,0.2774,0.286,0.2974,0.3166,0.3235,0.3327,0.3318,0.3237,0.3173,0.3404,0.3236,0.3244,0.3258,0.3176,0.3109,0.3081,0.3084,0.3087,0.309,0.3092,0,0.246,0.2483,0.252,0.2542,0.2536,0.2605,0.2651,0.2611,0.2637,0.2797,0.2905,0.2755,0.2772,0.2841,0.2707,0.273,0.2654,0.2604,0.2467,0.2511,0.2548,0.2422,0.2131,0.2127,0.2124,0.212,0,0,0.2444,0.245,0.2457,0.2415,0.2425,0.2367,0.236,0.2327,0.2386,0.2375,0.2413,0.2672,0.2806,0.243,0.2399,0.2236,0.2343,0.2156,0.2943,0.283,0.2862,0.2951,0.2814,0,0,0,0,0]},{"header":{"parameterUnit":"m.s-1","parameterCategory":2,"la1":30.2991,"la2":30.254,"lo1":-89.0895,"lo2":-89.0444,"dy":0.0017,"dx":0.0017,"nx":28,"ny":28,"refTime":"2025-03-08T03:00:00:Z","depth":"2","parameterNumber":3,"parameterNumberName":"V-component_of_CURRENTS"},"data":[0,0,0,0,0,0,0,0,0,0,0,0,0,0,0,0,0,0,0,0,0,0,0,0,0,0,0,0,0,0,0,0,0,0,0,0,0,0,0,0,0,0,0,0,0,0,0,0,0,0,0,0,0,0,0,0,0,0,0.0101,0.01,0,0.0037,0.0036,0.0035,-0.0015,-0.0015,-0.0015,-0.0016,-0.0118,-0.0121,-0.0123,0,0,0,0,0,0,0,0,0,0,0,0,0,0.0125,0.0125,0.0101,0.01,0.01,0.0037,0.0036,0.0035,-0.0015,-0.0015,-0.0015,-0.0016,-0.0117,-0.012,-0.0123,0,0,0,0,0,0,0,0,0,0,0,0,0,0.0092,0.0125,0.0101,0.0069,0.0065,0.0037,0.0036,0.0034,-0.0015,-0.0015,-0.0016,-0.0016,-0.0116,-0.012,-0.0124,-0.0137,0,0,-0.0135,-0.0136,0,0,0,0,0,0,0,0,0.0094,0.0091,0.0074,0.0071,0.0067,0.002,0.0007,-0.0024,-0.0015,0.0014,-0.0016,-0.0016,-0.0074,-0.0081,-0.0094,-0.0142,-0.0146,-0.0135,-0.0137,-0.0139,-0.014,0,0,0,0,0,0,0,0.0096,0.0093,0.0074,0.0074,0.0069,0.0038,0.0034,0.0,-0.0029,0.0011,0.0008,0.0004,-0.0077,-0.0091,-0.0097,-0.0148,-0.0135,-0.0138,-0.0141,-0.0142,-0.0211,-0.021,0,0,0,0,0,0,0.0111,0.0095,0.0076,0.0072,0.0082,0.0039,0.0033,0.0034,-0.0028,-0.0037,0.0004,0.0002,-0.0084,-0.0093,-0.0101,-0.0104,-0.0139,-0.0142,-0.0144,-0.0211,-0.0211,-0.021,0,0,0,0,0,0,0.0112,0.011,0.0078,0.0083,0.0077,0.004,0.0041,0.0033,0.0021,-0.0032,-0.0043,0.0001,-0.0085,-0.0096,-0.0122,-0.0109,-0.0144,-0.0147,-0.0211,-0.0211,-0.021,-0.0121,0,0,0,0,0,0,0.0113,0.0111,0.0116,0.0084,0.0077,0.0072,0.0041,0.0032,0.002,0.0016,-0.0039,-0.0049,-0.0086,-0.0117,-0.0126,-0.0115,-0.015,-0.0212,-0.0211,-0.0211,-0.0125,-0.0118,-0.0112,0,0,0,0,0,0.0114,0.0129,0.0116,0.0114,0.0086,0.0073,0.0066,0.0036,0.0021,0.0022,-0.0015,-0.0047,-0.0119,-0.0119,-0.013,-0.012,-0.0212,-0.0211,-0.0211,-0.0127,-0.0119,-0.0112,0,0,0,0,0,0,0.0141,0.0125,0.011,0.0118,0.01,0.0065,0.0064,0.0043,0.0015,0.0012,-0.0042,-0.0055,-0.0074,-0.011,-0.0108,-0.0139,-0.0171,-0.0172,-0.0104,-0.0097,-0.009,-0.007,-0.0153,0,0,0,0,0,0.0151,0.0157,0.0132,0.0138,0.0133,0.0099,0.0089,0.0072,0.0044,0.0031,-0.0007,-0.0047,-0.008,-0.0097,-0.0132,-0.0147,-0.0182,-0.0149,-0.0142,-0.0136,-0.0128,-0.0169,-0.0165,-0.0207,-0.0207,-0.0207,0,0,0.0162,0.0154,0.0156,0.0144,0.0127,0.0133,0.0092,0.0088,0.0091,0.0024,0.0016,-0.0027,-0.0079,-0.0095,-0.0107,-0.0122,-0.0142,-0.0135,-0.013,-0.0125,-0.0168,-0.0163,-0.016,-0.0207,-0.0207,-0.0207,0,0,0.0195,0.0183,0.02,0.0193,0.0179,0.0161,0.0164,0.0136,0.0121,0.0107,0.0061,0.003,-0.002,-0.0052,-0.0076,-0.0056,-0.0108,-0.0069,-0.0019,-0.0057,-0.0054,-0.0052,-0.0085,-0.0086,-0.0064,-0.0064,-0.0064,0,0.0208,0.0228,0.0202,0.0219,0.0223,0.018,0.0204,0.0183,0.015,0.0145,0.0117,0.0048,0.0002,-0.0017,-0.0012,-0.004,-0.007,-0.0041,-0.0047,-0.0046,-0.0045,-0.008,-0.0082,-0.006,-0.006,-0.0061,-0.0061,0,0.0255,0.027,0.0282,0.0291,0.0291,0.0304,0.028,0.0274,0.0249,0.0226,0.02,0.0132,0.0094,0.0071,0.0034,0.0023,-0.0003,-0.0034,-0.0062,-0.0035,-0.0074,-0.0078,-0.0053,-0.0055,-0.0056,-0.0057,0,0,0.0288,0.0312,0.0316,0.0338,0.0334,0.0343,0.0351,0.0349,0.0365,0.031,0.0317,0.0247,0.0209,0.0179,0.0123,0.0085,0.0063,0.0036,0.0032,0.0012,-0.0018,-0.0037,-0.0044,0.0032,0.0031,0.0031,-0.0046,0,0.0333,0.0389,0.0384,0.0436,0.0465,0.0439,0.0452,0.0444,0.0426,0.042,0.0342,0.0325,0.025,0.0236,0.0185,0.0096,0.0055,0.0087,-0.0051,-0.0054,-0.0067,-0.0048,-0.0021,-0.0087,-0.005,-0.0051,-0.0052,0,0.0381,0.0416,0.0477,0.0519,0.0529,0.0548,0.0574,0.0586,0.0562,0.0548,0.051,0.0448,0.0385,0.0315,0.0178,0.0202,0.0103,0.0025,0.0019,-0.0031,-0.0081,-0.0112,-0.0097,-0.0059,-0.0059,-0.0058,-0.0058,0,0.0427,0.0481,0.0537,0.0551,0.0585,0.0606,0.0623,0.0624,0.066,0.0635,0.065,0.0553,0.0517,0.0378,0.0213,0.0197,0.0056,0.0013,-0.0099,-0.0102,-0.0123,-0.0126,-0.0085,-0.0085,-0.0085,-0.0085,-0.0084,0,0.0481,0.0525,0.0563,0.0595,0.0666,0.0666,0.0737,0.074,0.0766,0.082,0.0723,0.0737,0.0531,0.0423,0.0254,0.0073,0.0086,-0.0084,-0.0121,-0.0091,-0.009,-0.0105,-0.0106,-0.0088,-0.0087,-0.0086,-0.0086,0,0.0523,0.0546,0.0616,0.0668,0.0691,0.0743,0.0827,0.0884,0.0891,0.0957,0.0956,0.0883,0.0744,0.0527,0.0307,0.0145,-0.0039,-0.011,-0.0057,-0.0086,-0.0184,-0.018,-0.024,-0.0242,-0.0243,-0.0244,-0.0244,0,0.055,0.0588,0.0674,0.0729,0.0757,0.0837,0.0899,0.0943,0.102,0.1053,0.1097,0.0989,0.0935,0.0608,0.03,0.0005,-0.0037,-0.0165,-0.0196,-0.0169,-0.0199,-0.0193,-0.0188,-0.019,-0.0191,-0.0191,-0.0191,0,0.0602,0.0627,0.0691,0.0801,0.0881,0.0983,0.1079,0.1157,0.1213,0.1269,0.1323,0.1283,0.0977,0.0687,0.0279,0.0083,-0.0118,-0.0178,-0.0162,-0.0151,-0.0127,-0.0155,-0.015,-0.0193,-0.0193,-0.0192,-0.0192,-0.0192,0.0639,0.0694,0.0775,0.0882,0.0983,0.111,0.1203,0.1312,0.1436,0.1522,0.1487,0.1444,0.1101,0.0598,0.0236,-0.0136,-0.0122,-0.0254,-0.0251,-0.0249,-0.0225,-0.0204,-0.0279,-0.0279,-0.028,-0.028,-0.028,0,0.0683,0.0749,0.0851,0.098,0.1093,0.1146,0.1313,0.1405,0.1551,0.1638,0.1679,0.1374,0.1049,0.0662,0.0102,-0.0234,-0.0253,-0.0328,-0.0287,-0.0283,-0.0279,-0.0256,-0.032,-0.0321,-0.0322,-0.0323,0,0,0.0709,0.0808,0.0862,0.1044,0.1143,0.1302,0.1404,0.1541,0.1645,0.1721,0.1721,0.1666,0.1191,0.078,0.0313,-0.0008,-0.0059,-0.0058,0.001,0.0118,0.0125,-0.0201,-0.0155,0,0,0,0,0]}],[{"header":{"parameterUnit":"m.s-1","parameterCategory":2,"la1":30.2991,"la2":30.254,"lo1":-89.0895,"lo2":-89.0444,"dy":0.0017,"dx":0.0017,"nx":28,"ny":28,"refTime":"2025-03-08T03:00:00:Z","depth":"4","parameterNumber":2,"parameterNumberName":"U-component_of_CURRENTS"},"data":[0,0,0,0,0,0,0,0,0,0,0,0,0,0,0,0,0,0,0,0,0,0,0,0,0,0,0,0,0,0,0,0,0,0,0,0,0,0,0,0,0,0,0,0,0,0,0,0,0,0,0,0,0,0,0,0,0,0,0.1777,0.1778,0,0.1851,0.1851,0.1852,0.1914,0.1915,0.1916,0.1917,0.2,0.2002,0.2003,0,0,0,0,0,0,0,0,0,0,0,0,0,0.1686,0.1687,0.1777,0.1778,0.1779,0.1851,0.1851,0.1852,0.1914,0.1915,0.1916,0.1917,0.2,0.2001,0.2003,0,0,0,0,0,0,0,0,0,0,0,0,0,0.1737,0.1688,0.1777,0.182,0.1825,0.185,0.1851,0.1852,0.1914,0.1915,0.1916,0.1918,0.1999,0.2001,0.2003,0.199,0,0,0.201,0.2011,0,0,0,0,0,0,0,0,0.1734,0.174,0.1813,0.1817,0.1823,0.1877,0.185,0.19,0.1913,0.1878,0.1917,0.1918,0.196,0.1966,0.1973,0.1993,0.1997,0.201,0.2011,0.2012,0.2013,0,0,0,0,0,0,0,0.1731,0.1737,0.1804,0.1814,0.182,0.1835,0.1844,0.186,0.1909,0.1881,0.1886,0.1898,0.1963,0.1971,0.1976,0.1998,0.201,0.2012,0.2013,0.2014,0.2137,0.2139,0,0,0,0,0,0,0.1725,0.1734,0.1802,0.1806,0.1783,0.1836,0.1845,0.1856,0.1909,0.1919,0.1896,0.19,0.1967,0.1973,0.1979,0.2077,0.2012,0.2014,0.2015,0.2135,0.2137,0.214,0,0,0,0,0,0,0.1723,0.173,0.1799,0.1774,0.1784,0.1836,0.1848,0.1857,0.1905,0.1921,0.1931,0.194,0.1968,0.1976,0.2033,0.2077,0.2015,0.2017,0.2133,0.2136,0.2138,0.2202,0,0,0,0,0,0,0.172,0.1729,0.1752,0.1773,0.1785,0.184,0.1847,0.1857,0.1909,0.1916,0.1961,0.1968,0.197,0.203,0.2035,0.2078,0.2019,0.213,0.2134,0.2137,0.2197,0.2207,0.2215,0,0,0,0,0,0.1716,0.1736,0.1753,0.1762,0.181,0.1841,0.1849,0.1888,0.191,0.1936,0.1973,0.1969,0.2057,0.2033,0.2038,0.2084,0.2128,0.2133,0.2137,0.2193,0.2205,0.2215,0,0,0,0,0,0,0.171,0.1745,0.1764,0.1795,0.183,0.1853,0.1887,0.1909,0.1957,0.1978,0.1989,0.1999,0.2068,0.2066,0.2038,0.2131,0.2094,0.21,0.2135,0.2146,0.2154,0.2155,0.202,0,0,0,0,0,0.1718,0.1747,0.1778,0.1809,0.1829,0.1865,0.1891,0.1918,0.1954,0.1979,0.2011,0.2047,0.2082,0.2107,0.2135,0.218,0.2188,0.2215,0.2224,0.2231,0.2237,0.2289,0.2302,0.2154,0.2154,0.2154,0,0,0.1726,0.175,0.1768,0.1811,0.1843,0.1876,0.1885,0.1937,0.1975,0.1978,0.2054,0.2082,0.2103,0.216,0.2191,0.2169,0.228,0.2237,0.2243,0.2245,0.2295,0.2309,0.2322,0.2157,0.2157,0.2156,0,0,0.1741,0.1779,0.1805,0.1836,0.1891,0.1912,0.1935,0.1984,0.2023,0.2084,0.2105,0.2161,0.221,0.2236,0.2252,0.2325,0.2326,0.2343,0.2386,0.2437,0.2449,0.246,0.2494,0.2507,0.2344,0.2344,0.2345,0,0.1753,0.1785,0.1819,0.1851,0.1884,0.1932,0.1968,0.2008,0.2073,0.211,0.2122,0.2225,0.2244,0.2312,0.2342,0.2345,0.237,0.2342,0.2448,0.2459,0.2469,0.2501,0.2515,0.2348,0.2348,0.2347,0.2347,0,0.1773,0.1816,0.1838,0.1893,0.1933,0.1976,0.2029,0.2086,0.214,0.2177,0.2274,0.2309,0.2369,0.239,0.2388,0.2476,0.2471,0.2454,0.2418,0.2488,0.2517,0.253,0.2353,0.2352,0.2351,0.235,0,0,0.1751,0.1835,0.1846,0.1881,0.1962,0.199,0.2069,0.214,0.2204,0.2275,0.2356,0.2422,0.2458,0.2479,0.2499,0.2542,0.2635,0.2536,0.2537,0.2564,0.275,0.2576,0.2574,0.2645,0.2648,0.265,0.2743,0,0.1761,0.1819,0.1865,0.1933,0.1968,0.2041,0.2106,0.2183,0.2261,0.2352,0.2412,0.25,0.2487,0.2542,0.2583,0.2632,0.2674,0.2611,0.2683,0.2685,0.2517,0.2584,0.2658,0.2752,0.2755,0.2758,0.2759,0,0.1755,0.1799,0.1864,0.1957,0.1982,0.2037,0.2157,0.2224,0.2352,0.242,0.2515,0.2572,0.2669,0.2645,0.2754,0.2722,0.2743,0.2765,0.2769,0.2591,0.2535,0.2668,0.2783,0.2781,0.2779,0.2778,0.2776,0,0.1702,0.1795,0.1849,0.188,0.1993,0.2051,0.2123,0.225,0.2323,0.2484,0.2558,0.267,0.275,0.2802,0.2847,0.2823,0.2951,0.2915,0.2775,0.2764,0.2863,0.285,0.2984,0.2984,0.2984,0.2983,0.2983,0,0.1672,0.1719,0.1835,0.1863,0.194,0.2035,0.2139,0.2233,0.2379,0.2464,0.2595,0.2674,0.2798,0.2876,0.2893,0.2873,0.2989,0.2793,0.2778,0.2888,0.2877,0.2873,0.2859,0.2987,0.2986,0.2985,0.2985,0,0.1599,0.1678,0.1742,0.187,0.1916,0.1974,0.2131,0.2199,0.236,0.2481,0.2541,0.2715,0.2815,0.2901,0.3001,0.2915,0.2927,0.2888,0.3014,0.3004,0.2695,0.2684,0.2737,0.2731,0.2727,0.2723,0.272,0,0.1561,0.159,0.1726,0.1765,0.183,0.1934,0.2002,0.2172,0.2245,0.2473,0.251,0.2682,0.2771,0.2776,0.2875,0.2901,0.2862,0.2846,0.2748,0.269,0.2672,0.2668,0.2662,0.2713,0.2712,0.2711,0.2709,0,0.1483,0.1549,0.1602,0.1687,0.1762,0.183,0.1943,0.198,0.2173,0.2339,0.243,0.2496,0.2601,0.267,0.2716,0.2722,0.2844,0.2798,0.2806,0.2713,0.2662,0.2647,0.2647,0.2694,0.2696,0.2697,0.2698,0,0.1426,0.1442,0.1524,0.1582,0.1668,0.1696,0.1771,0.1857,0.1951,0.2199,0.2225,0.2408,0.2576,0.2579,0.2619,0.2618,0.2568,0.2471,0.2495,0.2514,0.2395,0.2294,0.2209,0,0,0,0,0,0.1357,0.1364,0.1411,0.1461,0.1539,0.159,0.1716,0.1797,0.1982,0.1989,0.2103,0.2193,0.2271,0.2369,0.2322,0.2507,0.2568,0.244,0.2466,0.2607,0.2625,0.2505,0,0,0,0,0,0,0.1309,0.1352,0.1367,0.1347,0.1361,0.1429,0.1501,0.1625,0.164,0.1842,0.19,0.2058,0.2167,0.2278,0.2281,0.2308,0.2277,0.2558,0.2552,0.2597,0.2614,0.2628,0.251,0,0,0,0,0]},{"header":{"parameterUnit":"m.s-1","parameterCategory":2,"la1":30.2991,"la2":30.254,"lo1":-89.0895,"lo2":-89.0444,"dy":0.0017,"dx":0.0017,"nx":28,"ny":28,"refTime":"2025-03-08T03:00:00:Z","depth":"4","parameterNumber":3,"parameterNumberName":"V-component_of_CURRENTS"},"data":[0,0,0,0,0,0,0,0,0,0,0,0,0,0,0,0,0,0,0,0,0,0,0,0,0,0,0,0,0,0,0,0,0,0,0,0,0,0,0,0,0,0,0,0,0,0,0,0,0,0,0,0,0,0,0,0,0,0,0.0068,0.0068,0,0.0021,0.002,0.002,-0.0015,-0.0015,-0.0015,-0.0016,-0.0096,-0.0098,-0.01,0,0,0,0,0,0,0,0,0,0,0,0,0,0.0088,0.0088,0.0068,0.0068,0.0067,0.0021,0.002,0.002,-0.0015,-0.0015,-0.0016,-0.0016,-0.0095,-0.0098,-0.01,0,0,0,0,0,0,0,0,0,0,0,0,0,0.0063,0.0088,0.0068,0.0045,0.0043,0.0021,0.002,0.0019,-0.0015,-0.0015,-0.0016,-0.0016,-0.0095,-0.0098,-0.0101,-0.0113,0,0,-0.011,-0.0111,0,0,0,0,0,0,0,0,0.0065,0.0062,0.0049,0.0047,0.0044,0.001,-0.0002,-0.0026,-0.0015,0.0006,-0.0016,-0.0016,-0.0063,-0.0068,-0.0078,-0.0117,-0.012,-0.011,-0.0112,-0.0113,-0.0114,0,0,0,0,0,0,0,0.0066,0.0064,0.0048,0.0049,0.0046,0.0024,0.002,-0.0007,-0.0028,0.0004,0.0001,-0.0002,-0.0065,-0.0075,-0.008,-0.0121,-0.011,-0.0112,-0.0114,-0.0115,-0.0175,-0.0175,0,0,0,0,0,0,0.0077,0.0066,0.005,0.0047,0.0055,0.0024,0.002,0.002,-0.0027,-0.0034,-0.0001,-0.0003,-0.007,-0.0077,-0.0083,-0.0085,-0.0113,-0.0116,-0.0117,-0.0176,-0.0175,-0.0175,0,0,0,0,0,0,0.0078,0.0076,0.0052,0.0056,0.0051,0.0024,0.0025,0.0019,0.001,-0.003,-0.0038,-0.0004,-0.007,-0.0079,-0.0101,-0.0089,-0.0117,-0.012,-0.0176,-0.0175,-0.0175,-0.0099,0,0,0,0,0,0,0.0079,0.0077,0.008,0.0057,0.0052,0.0046,0.0025,0.0019,0.0009,0.0007,-0.0036,-0.0043,-0.0071,-0.0097,-0.0104,-0.0094,-0.0122,-0.0176,-0.0176,-0.0175,-0.0102,-0.0096,-0.0092,0,0,0,0,0,0.008,0.0089,0.0081,0.0079,0.0058,0.0047,0.0042,0.002,0.001,0.001,-0.0018,-0.0042,-0.01,-0.0099,-0.0108,-0.0098,-0.0176,-0.0176,-0.0175,-0.0104,-0.0097,-0.0092,0,0,0,0,0,0,0.0098,0.0086,0.0076,0.0081,0.0068,0.0042,0.0041,0.0025,0.0003,0.0002,-0.004,-0.0049,-0.0065,-0.0094,-0.0091,-0.0116,-0.0143,-0.0144,-0.0085,-0.0079,-0.0074,-0.0055,-0.0124,0,0,0,0,0,0.0105,0.011,0.0092,0.0095,0.0092,0.0067,0.0059,0.0047,0.0025,0.0015,-0.0014,-0.0046,-0.0071,-0.0084,-0.0113,-0.0124,-0.0156,-0.0126,-0.012,-0.0116,-0.0107,-0.0143,-0.014,-0.0174,-0.0174,-0.0174,0,0,0.0113,0.0107,0.0109,0.01,0.0087,0.0094,0.0062,0.0058,0.0063,0.001,0.0006,-0.003,-0.0072,-0.0084,-0.0093,-0.0105,-0.0123,-0.0115,-0.0111,-0.0104,-0.0142,-0.0139,-0.0136,-0.0174,-0.0174,-0.0174,0,0,0.0137,0.0128,0.0142,0.0137,0.0127,0.0115,0.0117,0.0095,0.0085,0.0075,0.0039,0.0014,-0.0026,-0.0049,-0.0067,-0.0053,-0.0096,-0.0065,-0.0019,-0.0054,-0.0051,-0.0049,-0.0083,-0.0085,-0.0059,-0.0059,-0.0059,0,0.0146,0.0163,0.0143,0.0157,0.0163,0.0129,0.015,0.0135,0.0109,0.0108,0.0084,0.0029,-0.0008,-0.002,-0.0014,-0.0039,-0.0067,-0.0036,-0.0046,-0.0044,-0.0044,-0.0079,-0.0082,-0.0056,-0.0056,-0.0056,-0.0057,0,0.0182,0.0196,0.0205,0.0216,0.0218,0.0229,0.0213,0.021,0.0191,0.0175,0.0155,0.01,0.0071,0.0052,0.0023,0.0015,-0.001,-0.0036,-0.0056,-0.0035,-0.0075,-0.0079,-0.005,-0.0052,-0.0053,-0.0054,0,0,0.0202,0.0227,0.0231,0.0252,0.0253,0.0261,0.0273,0.0276,0.029,0.0248,0.0255,0.0202,0.0169,0.0146,0.0101,0.0069,0.0047,0.0027,0.0023,0.0003,-0.003,-0.0044,-0.0051,0.0021,0.002,0.002,-0.0059,0,0.0237,0.0285,0.0286,0.0332,0.0356,0.0342,0.0358,0.0355,0.0343,0.0338,0.0278,0.0263,0.0206,0.0193,0.0153,0.0074,0.004,0.0071,-0.0056,-0.0059,-0.0067,-0.0055,0.0019,-0.0062,-0.0063,-0.0064,-0.0065,0,0.0273,0.0303,0.0358,0.04,0.0409,0.043,0.0458,0.0472,0.0457,0.0445,0.0416,0.0364,0.0314,0.0258,0.014,0.0162,0.0078,0.001,0.0005,-0.0037,-0.0081,-0.0091,-0.0073,-0.0072,-0.0072,-0.0071,-0.0071,0,0.0303,0.0354,0.0403,0.0417,0.0455,0.0478,0.0498,0.0505,0.0532,0.0516,0.0523,0.0448,0.0412,0.0299,0.0158,0.015,0.0019,-0.0012,-0.0107,-0.0109,-0.0106,-0.0107,-0.0095,-0.0094,-0.0094,-0.0094,-0.0094,0,0.0339,0.0379,0.0423,0.0451,0.0514,0.0524,0.0587,0.0593,0.0615,0.065,0.0583,0.0578,0.042,0.0323,0.0187,0.0031,0.0039,-0.0094,-0.0128,-0.0073,-0.007,-0.0109,-0.011,-0.0097,-0.0096,-0.0096,-0.0095,0,0.0361,0.039,0.0451,0.0505,0.053,0.0576,0.0653,0.0696,0.0709,0.075,0.0748,0.0677,0.0548,0.0382,0.0195,0.0077,-0.0076,-0.0135,-0.0057,-0.0086,-0.0189,-0.0185,-0.0243,-0.0244,-0.0245,-0.0246,-0.0246,0,0.0374,0.0407,0.049,0.0534,0.0563,0.0637,0.069,0.0737,0.0785,0.0805,0.082,0.0725,0.0647,0.0386,0.0201,-0.0054,-0.0099,-0.0179,-0.0191,-0.0175,-0.0203,-0.0197,-0.0192,-0.0248,-0.0248,-0.0248,-0.0249,0,0.0395,0.0423,0.0475,0.0566,0.0634,0.072,0.0796,0.0838,0.0887,0.0902,0.0881,0.075,0.0604,0.0391,0.0194,0.0007,-0.0126,-0.019,-0.0189,-0.0202,-0.0182,-0.0207,-0.0201,-0.0252,-0.0251,-0.0251,-0.0251,0,0.0404,0.0441,0.0507,0.0591,0.068,0.0765,0.0813,0.0865,0.0916,0.0933,0.0922,0.0772,0.069,0.0423,0.0242,0.0058,0.0001,-0.0068,-0.0075,-0.0074,-0.0009,0.0041,0.0019,0,0,0,0,0,0.0408,0.0451,0.0525,0.0619,0.0709,0.0768,0.0864,0.0905,0.0951,0.0944,0.0938,0.0802,0.0546,0.0444,0.0256,0.0199,-0.0047,-0.003,-0.0133,-0.027,-0.0266,-0.0221,0,0,0,0,0,0,0.0408,0.0475,0.0518,0.0624,0.0693,0.08,0.0866,0.0906,0.0904,0.0921,0.0793,0.0744,0.0497,0.0651,0.0249,0.0195,0.01,-0.0142,-0.0147,-0.0272,-0.0269,-0.0266,-0.0218,0,0,0,0,0]}]]